RH
6 6 4 4 4 4 4 5 5 5 5 5 4 4 4 3 3 3 3 3 3 2 3 4 2 2 3 6 13 22 19 15 17 28 34 33 32 32 31 28 26 27 27 26 24 20 18
35 6 6 5 4 4 5 6 5 6 5 5 5 4 4 4 4 4 4 3 3 3 3 4 3 3 5 10 22 32 40 36 23 21 32 34 33 35 34 33 32 32 30 27 24 21 20
39 39 6 5 5 5 4 5 6 6 6 6 6 4 4 4 4 4 4 4 4 3 3 4 3 4 7 16 22 31 36 46 46 37 27 20 22 27 30 32 31 34 34 32 29 27 25
52 33 39 6 5 5 5 5 5 7 7 6 6 6 5 4 4 5 5 5 5 4 3 4 4 4 10 17 24 27 30 46 46 45 43 42 40 31 21 19 21 28 32 32 33 30 28
70 48 31 35 6 5 5 5 5 5 6 7 6 6 6 5 5 4 5 5 5 4 3 4 4 3 10 18 21 23 24 32 48 47 34 28 29 34 41 39 30 29 39 37 35 35 33
48 57 46 29 32 7 6 6 6 6 6 6 6 6 5 5 5 5 4 4 4 4 3 4 4 4 10 19 20 20 20 24 33 41 46 40 32 28 28 37 49 46 48 47 41 38 35
24 29 45 44 28 24 8 6 7 7 6 6 6 6 5 5 4 4 4 4 4 4 4 3 4 4 5 14 19 20 19 20 22 28 35 38 34 26 27 23 25 46 54 57 62 60 56
23 23 27 36 36 29 27 10 7 8 8 7 7 7 6 6 7 6 6 5 4 4 4 3 4 4 4 8 16 18 19 18 19 20 22 22 23 24 22 20 19 22 34 52 55 53 53
29 23 20 25 37 33 30 30 11 9 9 9 9 8 7 6 6 6 6 6 5 4 4 3 3 4 4 4 7 16 18 17 18 17 18 19 20 21 21 20 19 20 22 26 32 48 51
79 35 34 26 30 37 31 32 34 14 11 10 11 10 9 8 7 7 7 6 6 5 5 4 4 4 4 4 4 8 17 18 20 17 16 17 18 19 20 20 21 21 23 24 24 26 26
93 86 44 52 47 40 35 29 32 35 20 13 11 11 10 9 9 8 7 7 7 6 5 4 4 6 6 6 7 10 15 19 20 19 16 16 19 20 19 20 20 20 21 22 22 22 21
92 95 55 48 74 48 43 35 29 30 30 25 16 14 13 12 10 10 9 8 8 7 6 6 5 5 7 7 8 10 13 18 20 19 17 16 16 16 19 19 20 21 22 23 24 24 20
99 96 98 52 51 75 62 47 35 28 29 25 23 19 15 14 14 13 11 10 9 7 7 7 8 7 6 6 7 10 13 16 18 19 18 17 16 16 16 16 17 18 20 23 25 24 23
100 100 98 96 64 42 65 64 38 35 24 27 28 18 18 18 17 15 13 11 8 7 7 6 8 8 8 7 7 8 9 11 14 18 20 19 18 17 16 16 15 16 21 22 25 26 27
100 99 100 98 100 76 51 41 58 46 32 23 24 29 20 16 16 17 16 11 8 9 9 10 11 11 10 11 9 8 9 11 15 17 19 18 18 18 16 14 14 13 13 16 18 17 19
100 100 100 99 100 98 96 64 44 37 44 40 33 31 30 28 19 18 14 10 10 12 13 13 11 10 10 13 14 14 12 11 16 18 18 17 16 15 15 14 14 13 14 14 14 14 14
100 100 100 100 100 100 100 99 56 47 40 36 33 33 33 31 31 27 15 12 12 12 14 17 15 15 14 14 16 18 17 17 18 18 17 16 15 13 13 12 13 16 16 15 14 13 12
100 100 100 100 100 100 100 100 98 72 86 89 90 44 32 33 30 25 26 24 16 15 20 19 18 17 16 18 18 18 19 20 19 18 17 15 14 12 10 9 9 11 12 13 13 12 13
100 100 100 100 100 100 100 100 100 100 97 83 89 100 98 56 47 30 22 22 26 26 26 26 26 23 25 25 24 22 20 20 18 17 15 14 12 10 9 8 9 10 12 14 15 16 16
100 100 100 100 100 100 100 100 100 100 100 99 100 100 100 100 95 65 61 39 29 24 22 20 20 20 20 18 19 16 15 16 15 14 16 16 14 14 11 15 16 15 15 17 20 21 26
100 100 100 100 100 100 100 100 100 100 100 99 99 100 100 99 98 98 99 87 65 47 59 53 36 27 24 26 28 29 27 24 22 22 24 26 22 24 23 26 28 29 33 39 42 46 47
76 100 100 100 100 100 100 100 100 99 99 99 100 100 99 100 100 98 98 99 99 99 84 73 82 76 69 59 49 38 56 62 53 51 52 66 72 76 61 70 71 65 65 70 76 82 83
51 100 100 100 100 100 100 100 100 100 96 97 99 99 100 100 100 99 100 98 95 95 96 98 100 99 98 93 89 81 77 82 82 80 83 93 100 98 90 88 96 90 87 95 99 99 93
51 100 100 100 100 100 100 100 100 100 99 97 95 96 95 94 100 100 100 100 100 99 99 100 100 97 100 100 97 98 95 90 84 90 88 92 100 100 95 100 98 92 87 86 91 93 100
54 61 100 100 100 100 100 100 100 100 100 100 98 91 90 92 99 99 100 100 100 100 100 100 100 100 100 99 100 100 100 95 99 99 99 100 100 100 100 100 97 100 99 100 100 100 100
84 67 82 100 100 100 100 100 100 100 100 100 100 100 100 99 98 100 100 100 100 100 100 100 100 100 100 100 100 100 100 100 100 100 100 100 100 100 100 100 99 93 100 100 100 100 100
97 93 64 100 100 100 100 100 100 100 100 100 100 100 100 100 100 100 100 100 100 100 100 100 100 100 100 100 100 100 100 100 100 99 100 100 100 100 100 100 99 97 99 100 100 96 100
91 90 91 74 100 100 100 100 100 100 100 100 100 100 100 100 100 100 99 100 100 100 99 100 100 99 100 98 100 100 98 99 96 100 100 100 98 100 100 100 100 100 100 100 98 95 92
57 46 55 56 90 99 100 100 100 100 100 98 100 100 100 100 98 100 100 100 100 100 99 94 87 90 96 97 97 96 92 92 94 91 100 100 100 97 99 100 100 100 100 100 99 98 100
Wind_Speed
42 45 48 49 49 48 47 47 46 45 44 43 42 39 36 34 32 30 29 28 26 23 21 21 20 19 20 18 12 11 11 10 10 12 12 12 13 14 14 14 16 16 15 15 15 15 15
45 47 50 52 52 50 49 48 49 48 47 46 44 41 39 37 35 33 31 30 27 25 23 22 20 20 18 12 8 7 9 10 10 10 15 16 15 16 16 16 16 16 15 15 15 16 15
50 48 51 55 54 53 52 52 51 51 50 48 47 45 43 42 39 36 34 31 29 27 26 23 21 20 16 11 8 8 11 11 11 11 12 14 18 19 20 21 20 20 18 18 17 16 15
52 52 51 53 57 56 55 55 54 53 53 51 49 48 47 45 43 39 37 34 31 29 28 26 22 21 16 13 11 12 13 12 12 12 12 14 16 16 19 21 22 21 21 21 20 19 19
59 57 55 55 57 60 58 58 57 57 55 54 52 51 49 47 45 43 40 37 34 32 30 28 24 22 19 16 16 16 16 15 16 16 15 15 16 16 18 19 21 22 21 22 22 23 23
64 63 60 60 60 62 63 60 59 58 57 56 55 53 51 49 47 46 44 41 37 35 32 31 27 24 22 21 19 19 19 19 19 18 19 18 18 18 18 20 21 22 22 22 24 24 25
67 66 66 65 63 62 63 64 62 61 59 57 55 54 53 51 50 48 45 43 41 39 36 35 31 28 25 26 23 23 22 22 22 22 21 21 21 21 21 21 21 23 26 25 26 28 28
69 69 69 68 67 65 63 65 66 64 61 59 57 55 54 53 51 49 47 45 43 43 40 38 36 32 29 30 28 28 26 25 25 25 25 25 23 25 24 24 24 24 24 27 31 32 31
71 71 72 72 70 68 67 65 66 67 65 63 61 58 56 55 53 52 50 48 46 44 44 42 40 36 31 31 33 32 32 30 27 26 28 27 26 27 27 28 27 26 26 27 29 32 33
70 75 74 74 73 71 69 67 66 65 68 67 65 62 59 57 54 52 50 49 48 47 50 45 44 41 37 34 35 35 36 35 32 29 29 29 28 29 28 27 28 26 28 29 31 33 34
72 80 77 76 73 74 73 70 68 68 67 67 68 67 65 62 60 57 55 52 52 49 59 50 47 41 40 39 37 38 39 39 37 35 32 31 29 28 28 30 33 32 32 33 33 36 39
70 75 80 78 75 76 76 72 70 69 68 67 66 68 68 67 65 61 60 58 55 55 65 55 48 45 43 41 41 41 42 42 41 39 37 34 32 31 32 33 34 34 35 37 40 40 46
79 77 77 81 77 75 79 76 72 71 69 68 66 66 68 67 67 65 63 62 60 65 62 58 51 48 46 45 44 42 44 45 46 44 40 40 39 38 35 35 37 38 37 42 47 47 49
82 72 78 83 80 77 78 79 72 75 72 70 66 65 66 65 65 65 64 63 67 68 63 58 57 52 48 47 49 50 49 48 47 48 48 47 44 41 41 42 42 44 44 45 51 52 51
63 68 73 76 74 81 79 81 76 75 75 71 68 65 64 65 64 65 65 69 68 65 64 60 56 55 52 48 50 52 54 52 49 49 49 52 52 48 48 48 47 47 48 47 52 55 59
54 58 64 74 70 84 81 83 80 78 75 73 70 66 64 65 64 65 67 70 70 66 62 60 58 57 56 52 51 52 53 56 53 52 52 54 56 55 53 51 50 50 51 52 52 57 63
53 59 58 66 70 76 73 75 85 81 77 74 71 68 65 66 66 67 70 70 68 65 63 60 59 59 58 57 55 54 56 55 55 55 55 57 58 59 60 58 54 54 57 57 57 61 64
39 48 64 61 64 71 72 73 83 82 79 74 72 72 68 67 69 69 71 69 68 67 62 65 65 63 62 61 61 59 59 58 59 60 60 59 62 64 63 63 63 63 61 61 62 62 63
41 43 47 55 62 66 69 74 74 79 80 79 72 69 71 69 70 70 69 68 69 70 69 67 67 67 65 64 65 65 62 61 62 62 63 62 64 64 66 68 67 66 63 61 62 64 67
55 41 43 42 41 54 67 70 72 76 76 74 72 68 66 64 67 69 70 71 69 70 71 71 69 68 68 66 65 67 66 66 65 65 65 67 68 67 66 66 67 68 67 67 68 71 70
52 43 45 41 40 36 43 55 69 70 71 71 70 70 66 63 63 64 67 70 70 72 76 75 72 72 70 71 69 67 70 71 70 68 68 70 71 71 69 69 71 72 70 71 76 76 77
37 38 42 46 46 43 40 39 46 58 66 66 67 66 65 65 60 60 61 60 67 68 69 74 81 80 77 76 76 77 76 79 77 77 74 75 75 77 77 77 79 80 80 81 80 79 81
30 32 44 42 41 43 43 43 43 43 49 52 55 61 62 61 60 61 62 64 65 62 67 69 70 72 75 78 81 83 81 82 82 81 82 81 78 76 80 78 78 80 80 79 78 78 79
29 30 38 37 42 44 42 47 45 45 46 46 47 50 53 53 53 53 54 55 55 58 61 62 65 68 70 71 72 74 75 75 75 74 73 72 69 68 69 67 70 73 73 73 75 76 75
32 33 36 38 31 32 38 47 47 44 42 40 41 41 43 43 45 47 48 50 51 54 58 60 65 67 68 67 67 67 67 68 66 66 65 65 65 68 70 73 73 71 72 73 76 76 77
29 32 36 36 31 36 34 41 42 41 40 41 44 43 39 38 39 40 41 44 48 53 56 59 62 64 68 70 72 72 71 69 67 66 64 64 64 67 68 69 72 71 75 76 77 77 76
26 30 37 45 36 36 30 31 38 36 37 39 39 43 41 38 37 39 41 41 43 45 48 52 56 58 60 61 62 63 65 67 68 72 72 73 73 71 70 65 64 69 72 74 73 75 77
20 32 32 42 49 45 40 34 30 34 35 33 39 41 43 42 42 39 38 38 38 41 44 46 45 44 48 50 51 51 55 57 60 59 59 61 63 60 56 54 50 53 51 57 61 61 66
17 22 32 34 44 55 45 29 33 26 28 35 32 33 38 41 44 40 39 38 38 40 41 43 44 45 45 45 47 49 50 52 52 54 53 53 53 55 56 52 49 49 49 51 53 52 50
Wind_Direction
238 232 228 226 226 225 225 226 226 227 228 231 232 232 234 238 241 243 247 250 254 260 264 273 287 301 310 311 317 319 322 321 299 258 252 252 258 263 266 265 269 276 279 276 276 276 278
244 238 232 230 229 228 228 229 229 228 228 230 234 235 235 237 241 244 245 247 253 259 261 269 283 296 299 301 304 314 322 320 308 286 260 260 261 266 270 272 276 278 280 276 274 275 277
243 241 239 233 232 230 229 231 231 232 231 231 231 233 235 237 239 242 246 249 253 257 258 264 277 289 280 271 282 293 302 299 295 298 288 277 268 266 265 271 274 275 275 275 277 275 269
244 244 239 239 235 233 231 231 232 233 234 233 234 235 236 238 241 244 248 253 254 256 256 259 270 281 260 257 263 271 284 287 287 286 289 290 286 280 273 270 271 271 271 270 268 268 268
239 243 242 240 237 236 235 233 233 233 234 235 235 238 240 242 244 246 250 255 257 256 258 259 265 274 252 252 255 262 269 272 275 277 282 290 294 295 284 277 273 271 271 273 271 269 267
237 239 242 242 239 237 236 236 236 235 235 236 237 238 241 243 246 248 248 251 253 254 258 258 260 264 251 245 251 260 267 266 268 275 275 280 288 294 294 287 279 272 271 275 276 274 274
238 237 239 241 243 240 237 237 237 237 237 238 238 240 240 241 243 244 245 247 247 249 252 254 257 262 257 246 245 250 259 268 271 271 273 274 280 285 290 293 293 283 275 269 269 272 273
238 238 238 239 240 241 241 239 238 239 239 239 240 241 241 242 242 243 244 245 245 248 248 249 250 254 258 253 247 249 254 260 267 270 271 275 278 282 285 287 288 285 283 281 277 276 273
238 237 237 237 238 238 239 240 241 240 240 240 241 242 245 245 246 246 246 246 246 245 247 248 248 250 253 257 253 250 255 260 263 268 271 272 275 279 283 286 285 283 284 283 283 282 283
246 240 237 237 236 237 238 238 240 241 242 241 241 242 242 245 247 248 249 250 251 251 253 246 247 246 248 253 255 254 255 259 261 264 265 269 274 275 276 280 280 280 283 285 286 284 285
240 244 240 237 238 238 237 237 239 240 242 244 244 243 242 243 244 246 249 251 254 256 259 254 251 252 251 250 254 253 254 257 261 263 263 265 266 271 276 278 279 281 280 280 279 281 284
236 243 238 240 238 238 238 237 237 240 242 242 244 245 245 245 245 246 248 250 252 255 257 259 258 257 258 254 253 254 255 258 260 262 262 262 260 262 269 271 274 278 278 279 280 281 280
232 234 237 239 240 241 241 238 239 239 241 243 243 244 246 246 247 247 248 250 251 251 253 257 259 258 258 258 258 256 254 255 259 261 260 259 262 263 262 262 266 271 271 273 276 278 288
229 230 234 236 239 240 242 242 239 240 240 241 243 244 246 247 248 249 248 248 250 251 254 258 261 260 258 257 256 255 255 255 257 259 263 265 264 264 266 268 269 268 268 270 278 280 280
227 228 230 232 234 239 241 241 241 241 240 241 242 243 245 247 248 249 249 249 250 253 254 255 257 258 258 257 255 253 254 254 255 259 262 264 263 266 268 269 270 272 273 273 274 279 284
225 222 224 229 229 235 240 243 240 240 241 240 241 242 243 246 247 248 250 251 251 253 256 257 258 258 258 256 256 254 252 254 254 257 259 263 267 267 268 268 269 273 274 273 274 277 281
229 227 222 223 222 231 231 238 244 241 240 243 242 241 243 246 246 247 249 252 255 255 256 258 258 258 259 259 255 256 256 257 260 260 262 262 262 264 266 268 269 268 270 271 272 273 277
227 232 230 222 225 229 231 230 239 243 243 241 244 245 243 244 247 249 251 253 255 256 256 258 258 259 258 259 259 258 258 259 261 261 262 263 265 266 269 270 270 270 271 272 273 278 279
233 233 233 234 226 227 229 229 231 238 244 246 245 246 248 246 247 249 251 254 255 256 257 255 258 259 260 261 263 263 262 261 262 264 265 265 264 265 266 268 272 274 275 273 272 270 271
230 223 229 233 233 235 233 233 235 235 236 239 240 238 240 245 248 250 252 254 256 258 260 259 259 260 262 262 263 264 263 263 262 262 263 265 266 267 268 271 272 273 273 273 273 271 273
228 223 221 227 225 230 235 241 239 237 237 237 238 238 241 245 248 247 251 254 256 257 259 262 264 263 262 263 263 263 266 267 268 268 267 267 268 270 270 270 270 271 271 271 272 275 272
221 206 218 223 226 228 235 237 241 246 247 246 243 244 247 250 251 253 252 252 254 256 259 262 263 266 268 268 267 269 266 265 266 267 268 269 271 269 270 269 269 269 270 270 271 273 274
226 212 208 217 221 222 226 234 241 242 249 251 252 252 252 253 252 254 255 258 258 257 256 258 259 261 263 265 267 267 265 265 266 267 269 272 273 272 271 270 269 270 271 271 270 270 272
224 216 205 214 219 226 227 226 229 239 246 250 251 251 253 252 252 252 253 252 250 253 254 255 255 256 257 258 260 261 264 265 265 266 267 268 269 269 269 268 268 271 271 270 270 271 271
222 218 208 202 202 219 223 222 224 225 233 242 248 249 250 250 250 249 246 246 246 245 245 247 248 249 251 253 254 255 257 262 262 263 264 262 260 259 258 259 262 261 262 264 267 268 269
223 222 208 199 219 218 225 226 220 223 231 236 241 246 246 246 249 248 246 243 242 242 242 243 246 247 249 250 252 252 252 251 253 254 255 256 257 258 259 262 263 261 261 261 262 264 266
228 222 214 207 207 215 212 228 228 233 232 229 236 232 240 244 241 244 246 244 244 244 243 245 247 249 251 252 255 257 257 259 260 261 262 263 264 267 269 271 271 270 269 271 270 267 269
241 223 220 218 214 219 221 227 230 238 233 233 234 237 237 240 238 238 241 247 249 250 249 249 250 252 254 256 258 259 259 260 260 262 265 266 266 268 271 272 267 263 260 263 267 268 268
250 235 228 223 222 217 212 217 222 229 235 232 230 231 232 236 238 236 241 244 242 247 252 255 257 259 261 265 268 269 270 267 267 266 268 270 271 270 269 269 267 263 259 261 262 261 263